STARLINK-1466

decayed
NORAD ID: 45732 Int'l Des: 2020-038 Owner: SPXS Country: US Constellation: starlink
LEOCIRCULAR
Gruppe

Über STARLINK-1466

Beschreibung wird geladen...

Höhenverlauf

Altitude vs Time

uPlot chart will show altitude changes over time

Zweizeiliger Elementsatz

1 45732U 20038C 24246.17363266 .62225777 12442-4 25315-2 0 9999
2 45732 53.0424 126.0560 0003023 228.3414 267.7664 16.43835120234902
Epoch: 2. Sept. 2024 • Age: 9077 hours

Aktueller Status

Position data unavailable
Startdatum 13. Juni 2020
Alter 5.2 years
Verglühungsdatum 2. Sept. 2024
Typ internet

Technische Details

Klassifizierung Payload
Masse 260.00 kg
Trockenmasse 248.00 kg
Gesamtmasse 260.00 kg
Länge 0.20 m
Durchmesser 2.80 m
Spannweite 9.00 m
Form Box + pan
Hersteller SPXS
Bus-Typ Starlink
Phasenstatus Unknown Transfer Status
Besitzer/Staat SPXS/US

Große Konstellationen

Loading constellations...